Regional Weather Roundup
Issued by NWS

Home | Current Version | Previous Version | Graphics & Text | Print | Product List | Glossary On
Versions: 1 2 3 4 5 6 7 8 9 10 11 12 13 14 15 16 17 18 19 20 21 22 23 24 25 26 27 28 29 30 31 32 33 34 35 36 37 38 39 40 41 42 43 44 45 46 47 48 49 50
635
ASUS44 KJAN 230203
RWRMS

MISSISSIPPI HOURLY WEATHER ROUNDUP
NATIONAL WEATHER SERVICE JACKSON MS
900 PM CDT TUE APR 22 2014

NOTE: "FAIR: INDICATES FEW OR NO CLOUDS BELOW 12,000 FEET WITH NO
SIGNIFICANT WEATHER AND/OR OBSTRUCTIONS TO VISIBILITY.

MSZ001>002-007>008-010>013-018>021-025>028-034>036-230300-
NORTHWEST MISSISSIPPI

CITY           SKY/WX    TMP DP  RH WIND       PRES   REMARKS
CLARKSDALE       N/A     66  46  48 NW6       29.95R
CLEVELAND      FAIR      65  53  64 N6        29.93R
GREENWOOD      CLEAR     66  58  75 CALM      29.92R
GREENVILLE     CLEAR     67  54  63 NW6       29.93R
GRENADA        FAIR      63  55  77 CALM      29.93R
OLIVE BRANCH   CLEAR     63  45  51 N5        29.95R
OXFORD         FAIR      66  50  55 N6        29.95R
TUNICA         CLEAR     61  46  59 N5        29.95R
$$

MSZ003>006-009-014>017-022>024-029>033-037>039-230300-
NORTHEAST MISSISSIPPI

CITY           SKY/WX    TMP DP  RH WIND       PRES   REMARKS
BELMONT        FAIR      67  57  71 NW5       29.91R
COLUMBUS AFB   CLOUDY    68  64  86 NW1       29.90R
CORINTH        FAIR      66  48  52 N5        29.92R
GOLDN TRIANGLE CLEAR     66  61  82 CALM      29.92R
STARKVILLE     FAIR      63  63 100 CALM      29.91R
TUPELO         CLEAR     68  56  65 N6        29.91R
$$

MSZ040-058-230300-
CENTRAL MISSISSIPPI

CITY           SKY/WX    TMP DP  RH WIND       PRES   REMARKS
JACKSON INTL   PTCLDY    66  62  87 CALM      29.92R
JACKSON HAWKNS CLEAR     70  61  73 CALM      29.93R
MERIDIAN KEY   FOG       61  61 100 CALM      29.92R VSB 3/4
MERIDIAN NAS   FOG       63  61  93 CALM      29.92R VSB 1
RAYMOND        FAIR      64  59  82 CALM      29.92R
VICKSBURG      CLEAR     69  62  78 CALM      29.93R
$$

MSZ059>079-230300-
SOUTH MISSISSIPPI

CITY           SKY/WX    TMP DP  RH WIND       PRES   REMARKS
BROOKHAVEN     FAIR      63  63 100 CALM      29.94R
HATTIESBURG    CLEAR     64  63  96 CALM      29.92R
MCCOMB         CLEAR     65  61  87 CALM      29.93R
NATCHEZ        PTCLDY    66  61  82 CALM      29.94R
PINE BELT      CLEAR     61  57  88 N3        29.93R
$$

MSZ080>082-230300-
COASTAL MISSISSIPPI

CITY           SKY/WX    TMP DP  RH WIND       PRES   REMARKS
BAY ST LOUIS   PTCLDY    66  61  82 N5        29.91R
BILOXI         MOCLDY    70  67  92 N1        29.90R
PASCAGOULA     CLOUDY    69  66  90 CALM      29.90R
GULFPORT       MOCLDY    71  66  84 CALM      29.90R
$$



USA.gov is the U.S. government's official web portal to all federal, state and local government web resources and services.